Location: Seattle
(47.6064°N, 122.3308°W)
Time: 01:17:22
(UTC-08:00)

Tiros 1 - Pass Details

Date: 28 November 2020
Orbit: 630 x 663 km, 48.4° (Epoch: 28 January)

Event Time Altitude Azimuth Distance (km) Brightness Sun altitude
Rises 16:32:51 0° 244° (WSW) 2,988 13.7 -2.5°
Reaches altitude 10° 16:35:12 10° 242° (WSW) 2,076 11.9 -2.9°
Maximum altitude 16:39:59 70° 160° (SSE) 705 7.4 -3.6°
Drops below altitude 10° 16:44:44 10° 77° (ENE) 2,069 9.1 -4.3°
Enters shadow 16:45:56 - 76° (ENE) 2,534 9.6 -4.5°
Sets 16:47:04 0° 76° (ENE) 2,977 - -4.6°
